Weather reports worldwide

Advertisment
Koblenz/Falkensteinkaserne, Germany (10516): temperature & dewpoint: 06.11.2019 17:00:00 - 12.11.2019 17:00:00 (CET)Koblenz/Falkensteinkaserne, Germany (10516): wind speed: 06.11.2019 17:00:00 - 12.11.2019 17:00:00 (CET)Koblenz/Falkensteinkaserne, Germany (10516): wind direction: 06.11.2019 17:00:00 - 12.11.2019 17:00:00 (CET)Koblenz/Falkensteinkaserne, Germany (10516): reduced air pressure: 06.11.2019 17:00:00 - 12.11.2019 17:00:00 (CET)Koblenz/Falkensteinkaserne, Germany (10516): visibility: 06.11.2019 17:00:00 - 12.11.2019 17:00:00 (CET)
Date & Time tt [°C] td [°C] ff [km/h] ff [kn] dd ppp [hPa] vv [km]
12.11.2019 17:00:00 7,0 1,6 7 4 SSW 1003,7 30
12.11.2019 16:00:00 7,5 1,7 11 6 SSW 1003,3 30
12.11.2019 15:00:00 7,4 1,5 14 8 SW 1003,3 30
12.11.2019 14:00:00 7,4 1,9 14 8 SW 1003,2 30
12.11.2019 13:00:00 8,0 2,4 11 6 SW 1003,3 25
12.11.2019 12:00:00 8,2 2,0 11 6 S 1003,9 25
12.11.2019 11:00:00 7,4 2,0 7 4 S 1004,1 25
12.11.2019 10:00:00 6,8 1,7 11 6 SSE 1004,6 25
12.11.2019 09:00:00 6,3 1,9 11 6 SSE 1005,2 20
12.11.2019 08:00:00 5,9 1,8 7 4 SSE 1005,2 20
12.11.2019 07:00:00 5,8 2,0 7 4 SSE 1005,3 20
12.11.2019 06:00:00 5,8 2,0 4 2 S 1005,7 -
12.11.2019 05:00:00 5,8 1,8 7 4 S 1006,1 -
12.11.2019 04:00:00 5,7 2,0 7 4 S 1006,3 -
12.11.2019 03:00:00 5,7 2,6 7 4 SSE 1006,4 -
12.11.2019 02:00:00 5,7 2,5 11 6 S 1006,1 -
12.11.2019 01:00:00 5,0 3,2 7 4 SSE 1005,9 -
12.11.2019 00:00:00 5,0 3,0 7 4 SSE 1006,0 -
11.11.2019 23:00:00 4,7 2,7 7 4 SE 1005,7 -
11.11.2019 22:00:00 4,6 2,5 11 6 SSE 1005,7 -
11.11.2019 21:00:00 4,4 2,3 11 6 SSE 1005,4 8
11.11.2019 20:00:00 4,9 1,7 14 8 SSE 1005,3 8
11.11.2019 19:00:00 4,9 1,7 14 8 SSE 1005,3 8
11.11.2019 18:00:00 5,1 1,5 11 6 SE 1004,7 8
11.11.2019 17:00:00 5,1 1,7 11 6 SE 1005,4 10
11.11.2019 16:00:00 5,2 1,7 11 6 SE 1005,5 10
11.11.2019 15:00:00 5,4 1,6 14 8 SE 1006,4 15
11.11.2019 14:00:00 5,6 1,4 14 8 SSE 1007,6 15
11.11.2019 13:00:00 5,8 1,1 14 8 SE 1008,2 15
11.11.2019 12:00:00 5,0 1,1 14 8 SE 1009,4 15
11.11.2019 11:00:00 4,8 1,0 14 8 SSE 1010,4 12
11.11.2019 10:00:00 4,6 1,8 18 10 SE 1011,3 12
11.11.2019 09:00:00 4,2 1,5 14 8 SE 1011,8 12
11.11.2019 08:00:00 3,8 1,3 7 4 SE 1012,7 12
11.11.2019 07:00:00 3,4 1,0 7 4 N 1013,7 -
11.11.2019 06:00:00 3,2 1,0 4 2 N 1014,4 -
11.11.2019 05:00:00 2,9 0,8 7 4 SSE 1015,1 -
11.11.2019 04:00:00 2,8 0,9 7 4 SE 1015,1 -
11.11.2019 03:00:00 2,9 0,8 7 4 SSE 1015,7 -
11.11.2019 02:00:00 3,2 1,0 7 4 SSE 1016,2 -
11.11.2019 01:00:00 3,3 1,2 7 4 N 1016,9 -
11.11.2019 00:00:00 3,5 1,4 7 4 ESE 1016,6 -
10.11.2019 23:00:00 4,0 2,0 7 4 SE 1016,5 -
10.11.2019 22:00:00 3,4 1,8 7 4 E 1016,8 -
10.11.2019 21:00:00 3,4 2,2 4 2 N 1017,1 -
10.11.2019 20:00:00 3,1 1,9 7 4 N 1016,9 -
10.11.2019 19:00:00 3,2 1,7 7 4 E 1017,0 -
10.11.2019 18:00:00 3,3 1,7 7 4 E 1016,8 -
10.11.2019 17:00:00 3,5 1,7 7 4 SSE 1016,2 -
10.11.2019 16:00:00 3,7 1,6 4 2 N 1015,5 -
10.11.2019 15:00:00 3,6 1,4 4 2 SSE 1014,9 -
10.11.2019 14:00:00 3,2 1,1 7 4 SSW 1014,6 -
10.11.2019 13:00:00 2,8 0,9 4 2 NNE 1014,4 -
10.11.2019 12:00:00 2,2 0,4 7 4 E 1014,4 -
10.11.2019 11:00:00 1,9 0,4 7 4 E 1014,3 -
10.11.2019 10:00:00 1,7 0,2 4 2 ENE 1013,7 -
10.11.2019 09:00:00 1,3 -0,1 7 4 NE 1013,1 -
10.11.2019 08:00:00 1,7 0,5 4 2 NE 1012,6 -
10.11.2019 07:00:00 1,0 0,1 4 2 NE 1011,8 -
10.11.2019 06:00:00 1,7 0,9 7 4 ENE 1010,8 -
10.11.2019 05:00:00 1,7 1,0 4 2 N 1010,6 -
10.11.2019 04:00:00 2,0 1,3 4 2 N 1010,2 -
10.11.2019 03:00:00 2,1 1,4 4 2 N 1010,2 -
10.11.2019 02:00:00 2,1 1,3 4 2 N 1009,9 -
10.11.2019 01:00:00 1,9 0,9 4 2 S 1010,0 -
10.11.2019 00:00:00 3,0 1,7 4 2 N 1009,5 -
09.11.2019 23:00:00 3,8 2,0 4 2 N 1009,6 -
09.11.2019 22:00:00 4,4 1,7 4 2 SSE 1009,6 -
09.11.2019 21:00:00 4,7 1,3 4 2 N 1009,7 -
09.11.2019 20:00:00 5,4 2,1 7 4 N 1009,8 -
09.11.2019 19:00:00 5,6 2,3 4 2 SE 1009,7 -
09.11.2019 18:00:00 5,9 3,0 4 2 N 1009,9 -
09.11.2019 17:00:00 6,1 3,0 7 4 N 1009,9 -
09.11.2019 16:00:00 6,1 2,8 7 4 SSW 1010,0 -
09.11.2019 15:00:00 6,5 2,6 11 6 S 1010,3 -
09.11.2019 14:00:00 6,5 2,3 7 4 S 1010,5 -
09.11.2019 13:00:00 6,1 2,3 7 4 SW 1010,6 -
09.11.2019 12:00:00 5,3 2,2 11 6 SW 1011,1 -
09.11.2019 11:00:00 5,3 2,2 11 6 WSW 1011,0 -
09.11.2019 10:00:00 5,0 2,2 7 4 SSW 1010,9 -
09.11.2019 09:00:00 4,3 1,8 7 4 SSW 1011,0 -
09.11.2019 08:00:00 2,6 1,3 4 2 NNE 1010,8 -
09.11.2019 07:00:00 4,0 2,1 4 2 W 1010,4 -
09.11.2019 06:00:00 4,2 3,1 7 4 NW 1010,3 -
09.11.2019 05:00:00 4,7 3,7 7 4 W 1010,1 -
09.11.2019 04:00:00 4,7 3,5 4 2 SSW 1010,0 -
09.11.2019 03:00:00 4,8 3,6 7 4 N 1009,6 -
09.11.2019 02:00:00 5,0 3,9 4 2 SW 1009,6 -
09.11.2019 01:00:00 5,3 4,4 4 2 N 1009,4 -
09.11.2019 00:00:00 5,5 4,6 7 4 SSW 1008,9 -
08.11.2019 23:00:00 5,8 4,9 4 2 N 1008,8 -
08.11.2019 22:00:00 5,9 5,1 4 2 WSW 1008,6 -
08.11.2019 21:00:00 5,7 4,7 4 2 ENE 1008,3 -
08.11.2019 20:00:00 6,5 5,5 4 2 N 1008,1 -
08.11.2019 19:00:00 6,7 5,4 4 2 N 1007,8 12
08.11.2019 18:00:00 6,3 4,8 4 2 NW 1007,5 15
08.11.2019 17:00:00 6,7 4,8 4 2 NW 1007,0 15
08.11.2019 16:00:00 7,3 4,6 0 0 N 1006,7 18
08.11.2019 15:00:00 7,0 4,4 4 2 NE 1006,6 18
08.11.2019 14:00:00 6,6 4,5 7 4 NNW 1006,3 12
08.11.2019 13:00:00 5,8 3,9 7 4 NNW 1006,3 9
08.11.2019 12:00:00 5,5 3,4 4 2 N 1007,0 8
08.11.2019 11:00:00 4,3 3,5 4 2 NNW 1007,5 3,0
08.11.2019 10:00:00 3,4 2,7 4 2 NNW 1007,1 1,5
08.11.2019 09:00:00 2,5 1,8 4 2 NW 1007,3 6
08.11.2019 08:00:00 2,0 1,3 4 2 N 1007,0 8
08.11.2019 07:00:00 2,0 1,2 4 2 N 1006,3 12
08.11.2019 06:00:00 3,4 2,7 4 2 N 1005,9 -
08.11.2019 05:00:00 2,8 2,1 4 2 N 1006,0 -
08.11.2019 04:00:00 2,2 1,2 4 2 E 1005,9 -
08.11.2019 03:00:00 3,6 2,2 4 2 NNE 1005,9 -
08.11.2019 02:00:00 5,1 3,3 7 4 N 1005,7 -
08.11.2019 01:00:00 5,2 3,2 4 2 WSW 1005,7 -
08.11.2019 00:00:00 5,9 3,5 7 4 SSE 1005,6 -
07.11.2019 23:00:00 5,3 4,2 4 2 N 1005,3 -
07.11.2019 22:00:00 6,2 3,7 4 2 S 1004,9 -
07.11.2019 21:00:00 6,8 3,8 4 2 N 1004,3 20
07.11.2019 20:00:00 7,9 3,9 7 4 N 1003,6 20
07.11.2019 19:00:00 7,4 4,5 4 2 N 1003,1 20
07.11.2019 18:00:00 9,2 4,6 7 4 SW 1001,9 20
07.11.2019 17:00:00 9,8 5,4 7 4 WSW 1000,7 20
07.11.2019 16:00:00 9,8 5,9 11 6 SSE 999,1 20
07.11.2019 15:00:00 9,2 5,7 11 6 SSE 998,8 20
07.11.2019 14:00:00 9,3 5,3 14 8 SSE 998,3 20
07.11.2019 13:00:00 9,2 5,8 11 6 SSE 998,5 20
07.11.2019 12:00:00 9,7 5,9 11 6 SSE 998,6 10
07.11.2019 11:00:00 10,1 5,6 14 8 SSE 998,8 20
07.11.2019 10:00:00 10,0 6,0 11 6 SSE 999,1 20
07.11.2019 09:00:00 8,9 6,5 7 4 N 999,7 18
07.11.2019 08:00:00 8,5 6,3 7 4 ESE 1000,0 15
07.11.2019 07:00:00 7,6 6,2 4 2 NW 1000,4 15
07.11.2019 06:00:00 7,7 6,5 4 2 N 1000,8 -
07.11.2019 05:00:00 8,0 7,1 4 2 N 1001,1 -
07.11.2019 04:00:00 7,9 6,9 4 2 N 1001,8 -
07.11.2019 03:00:00 8,0 7,0 4 2 N 1002,2 -
07.11.2019 02:00:00 8,0 7,2 7 4 N 1002,7 -
07.11.2019 01:00:00 8,0 7,3 4 2 N 1002,9 -
07.11.2019 00:00:00 8,3 7,5 7 4 NW 1003,3 -
06.11.2019 23:00:00 8,5 7,6 4 2 NW 1003,5 -
06.11.2019 22:00:00 8,6 7,7 4 2 N 1003,7 -
06.11.2019 21:00:00 8,6 7,8 4 2 N 1003,9 3,0
06.11.2019 20:00:00 8,6 7,7 4 2 N 1004,0 2,5
06.11.2019 19:00:00 8,6 7,8 4 2 N 1004,0 2,5
06.11.2019 18:00:00 9,0 8,1 4 2 N 1003,7 3,0
06.11.2019 17:00:00 9,1 7,9 4 2 N 1003,6 6

tt = temperature
td = dewpoint
ff = wind speed
dd = wind direction
ppp = reduced air pressure
vv = visibility

Next stations